Regional Weather Roundup
Issued by NWS Green Bay, WI

Home | Current Version | Previous Version | Graphics & Text | Print | Product List | Glossary Off
Versions: 1 2 3 4 5 6 7 8 9 10 11 12 13 14 15 16 17 18 19 20 21 22 23 24 25 26 27 28 29 30 31 32 33 34 35 36 37 38 39 40 41 42 43 44 45 46 47 48 49 50

000
ASUS43 KGRB 210059
RWRGRB

NORTH-CENTRAL AND NORTHEAST WISCONSIN REGIONAL WEATHER ROUNDUP
NATIONAL WEATHER SERVICE GREEN BAY WI
800 PM CDT SUN APR 20 2014

WIZ005-009-010>012-018-019-210200-
NORTH CENTRAL WISCONSIN

CITY           SKY/WX    TMP DP  RH WIND       PRES   REMARKS
IRONWOOD       CLEAR     55  27  33 N3        29.98R
MANITOWISH WTR NOT AVBL
ARBOR VITAE    NOT AVBL
EAGLE RIVER    NOT AVBL
LAND O LAKES   NOT AVBL
RHINELANDER    MOCLDY    54  49  83 SW6       30.01S
PHILLIPS       NOT AVBL
ANTIGO         NOT AVBL
TOMAHAWK       NOT AVBL
MERRILL        NOT AVBL
$$

WIZ013-073-210200-
NORTHEAST WISCONSIN

CITY           SKY/WX    TMP DP  RH WIND       PRES   REMARKS
IRON MOUNTAIN  MOCLDY    54  49  83 S5        29.98S
MARINETTE      CLOUDY    50  46  87 SW5       30.01F
$$

WIZ017-030-035>037-045-210200-
CENTRAL WISCONSIN

CITY           SKY/WX    TMP DP  RH WIND       PRES   REMARKS
MEDFORD        NOT AVBL
WAUSAU         CLOUDY    57  53  86 SE5       29.99F
MOSINEE        CLOUDY    55  54  94 SE3       30.01F
MARSHFIELD     CLOUDY    57  54  89 CALM      29.99F
WISC RAPIDS    CLOUDY    56  53  90 CALM      30.01F
STEVENS POINT  NOT AVBL
WAUPACA        NOT AVBL
SHAWANO        NOT AVBL
CLINTONVILLE   NOT AVBL
$$

WIZ038-039-048-051-210200-
FOX VALLEY

CITY           SKY/WX    TMP DP  RH WIND       PRES   REMARKS
NWS GREEN BAY  CLOUDY    56  53  90 CALM      30.02F
APPLETON       CLOUDY    55  50  82 E5        30.02F
OSHKOSH        CLOUDY    56  50  80 CALM      30.00F
FOND DU LAC    CLOUDY    56  49  77 CALM      30.00F
$$

WIZ022-050-052-210200-
EAST CENTRAL WISCONSIN

CITY           SKY/WX    TMP DP  RH WIND       PRES   REMARKS
STURGEON BAY   CLOUDY    48  39  71 S6        30.04F
MANITOWOC      NOT AVBL
SHEBOYGAN      CLOUDY    53  39  59 SE3       30.02F
$$

LMZ563-521-522-541>543-210200-
LAKESHORE

STATION/POSITION TIME  TEMP    WIND        PRES    VSBY  WAVE
                       AIR SEA DIR/SP/G                  HT/PER
                 (UTC) (F)     (DEG/KT/KT) (MB)    (MI)  (FT/S)
SHEBOYGAN LKSHOR 0000   44      40/  5/  6 1018.1F
KEWAUNEE LKSHORE 0000   40     170/  6/  6 1017.9F
TWO RIVERS CG    0000   40                   N/A       6   1
NORTHPORT PIER   0000   47     170/  4/  8 1016.9F
SISTER BAY LKSHO 0000   50     190/ 11/ 12   N/A
STURGEON BAY CG  0000   40     180/  3     1018.8      6   2
MENOMINEE LKSHOR 0000   43     170/  6/  8 1017.1F
$$



USA.gov is the U.S. government's official web portal to all federal, state and local government web resources and services.